Weather History for Fitchburg, MA

Change the Weather History Date:

Friday, February 22, 2013

  Actual Average (KORH) Record (KORH)
Temperature  
Mean Temperature 29 °F 28 °F  
Max Temperature 39 °F 36 °F 57 °F (1991)
Min Temperature 19 °F 21 °F -2 °F (1963)
Degree Days  
Heating Degree Days 36 37  
Month to date heating degree days 849  
Since 1 July heating degree days 4622  
Cooling Degree Days 0 0  
Month to date cooling degree days 0  
Year to date cooling degree days 0  
Moisture  
Dew Point 18 °F    
Average Humidity 59    
Maximum Humidity 85    
Minimum Humidity 39    
Precipitation  
Precipitation 0.00 in 0.11 in 1.80 in (1892)
Month to date precipitation 2.49  
Year to date precipitation 5.98  
Sea Level Pressure  
Sea Level Pressure 30.34 in    
Wind  
Wind Speed 6 mph (ENE)    
Max Wind Speed 12 mph    
Max Gust Speed 18 mph    
Visibility 10 miles    
Events      
T = Trace of Precipitation, MM = Missing Value Source: NWS Daily Summary

Daily Weather History Graph

Daily Weather History Graph

Search for Another Location

Airport:

Trip Planner

Search our weather history database for the weather conditions in past years. The results will help you decide how hot, cold, wet, or windy it might be!

Date:

Astronomy

Feb. 22, 2013 Rise Set
Actual Time 6:33 AM EST 5:28 PM EST
Civil Twilight 6:04 AM EST 5:56 PM EST
Nautical Twilight 5:32 AM EST 6:29 PM EST
Astronomical Twilight 4:59 AM EST 7:02 PM EST
Moon 2:34 PM EST (2/22) 4:19 AM EST (2/22)
Length of Visible Light 11h 52m
Length of Day
10h 55m
Waxing Gibbous, 90% of the Moon is Illuminated
Feb 22
Waxing Gibbous
Feb 25
Full
Mar 4
Last Quarter
Mar 11
New
Mar 19
First Quarter

Hourly Weather History & Observations

Time (EST) Temp. Windchill Dew Point Humidity Pressure Visibility Wind Dir Wind Speed Gust Speed Precip Events Conditions
12:52 AM 25.0 °F 14.2 °F 16.0 °F 69% 30.26 in 10.0 mi NNW 11.5 mph - N/A   Clear
1:52 AM 25.0 °F 18.1 °F 16.0 °F 69% 30.27 in 10.0 mi NW 5.8 mph - N/A   Clear
2:52 AM 24.1 °F 19.7 °F 16.0 °F 71% 30.27 in 10.0 mi NNW 3.5 mph - N/A   Clear
3:52 AM 21.9 °F 15.7 °F 16.0 °F 78% 30.29 in 10.0 mi NNW 4.6 mph - N/A   Clear
4:52 AM 19.9 °F - 16.0 °F 85% 30.30 in 10.0 mi Calm Calm - N/A   Clear
5:52 AM 19.9 °F 13.4 °F 15.1 °F 81% 30.34 in 10.0 mi NNW 4.6 mph - N/A   Clear
7:52 AM 26.1 °F 21.9 °F 18.0 °F 71% 30.40 in 10.0 mi NNW 3.5 mph - N/A   Clear
8:52 AM 34.0 °F 27.2 °F 17.1 °F 50% 30.39 in 10.0 mi North 8.1 mph - N/A   Clear
9:52 AM 34.0 °F 28.0 °F 17.1 °F 50% 30.39 in 10.0 mi NNE 6.9 mph 18.4 mph N/A   Clear
10:52 AM 36.0 °F 29.0 °F 16.0 °F 44% 30.38 in 10.0 mi NE 9.2 mph - N/A   Clear
11:52 AM 36.0 °F 29.6 °F 17.1 °F 46% 30.36 in 10.0 mi East 8.1 mph - N/A   Clear
12:52 PM 37.9 °F 33.5 °F 17.1 °F 43% 30.36 in 10.0 mi ENE 5.8 mph - N/A   Clear
1:52 PM 37.9 °F 33.5 °F 17.1 °F 43% 30.34 in 10.0 mi SE 5.8 mph - N/A   Clear
2:52 PM 39.0 °F - 16.0 °F 39% 30.33 in 10.0 mi Calm Calm - N/A   Clear
3:52 PM 37.9 °F 34.4 °F 17.1 °F 43% 30.34 in 10.0 mi ESE 4.6 mph - N/A   Clear
4:52 PM 37.9 °F 33.5 °F 17.1 °F 43% 30.32 in 10.0 mi East 5.8 mph - N/A   Clear
5:52 PM 36.0 °F - 18.0 °F 48% 30.34 in 10.0 mi Calm Calm - N/A   Clear
6:52 PM 34.0 °F 29.8 °F 19.0 °F 54% 30.35 in 10.0 mi SSE 4.6 mph - N/A   Clear
7:52 PM 33.1 °F 28.7 °F 21.0 °F 61% 30.36 in 10.0 mi South 4.6 mph - N/A   Clear
8:52 PM 33.1 °F 27.7 °F 21.9 °F 64% 30.35 in 10.0 mi SSE 5.8 mph - N/A   Scattered Clouds
9:52 PM 33.1 °F 28.7 °F 23.0 °F 66% 30.35 in 10.0 mi SSE 4.6 mph - N/A   Overcast
10:52 PM 33.1 °F 27.7 °F 23.0 °F 66% 30.34 in 10.0 mi SSE 5.8 mph - N/A   Overcast
11:52 PM 30.9 °F - 21.9 °F 69% 30.33 in 10.0 mi Calm Calm - N/A   Partly Cloudy